Location: Montreal
(45.5087°N, 73.5540°W)
Time: 23:52:51
(UTC-04:00)

X-37B - Pass Details

Date: 29 September 2021
Orbit: 385 x 389 km, 45.0° (Epoch: 13 October)

Event Time Altitude Azimuth Distance (km) Brightness Sun altitude
Exits shadow 05:11:53 67° 256° (WSW) 422 0.4 -17.9°
Maximum altitude 05:12:14 83° 184° (S) 394 0.5 -17.8°
Drops below altitude 10° 05:15:25 10° 96° (E) 1,414 4.5 -17.3°
Sets 05:17:30 0° 96° (E) 2,269 5.8 -16.9°
